Location: Lake Almanor
(40.2485°N, 121.1442°W)
Time: 06:57:30
(UTC-08:00)

ISS - Visible Passes

Search period start: 20 January 2020 00:00
Search period end: 30 January 2020 00:00
Orbit: 415 x 421 km, 51.6° (Epoch: 21 January)

Date Brightness Start Highest point End Pass type
(mag) Time Alt. Az. Time Alt. Az. Time Alt. Az.
20 Jan -3.8 18:40:49 10° SW 18:44:10 68° SE 18:44:33 60° E visible
21 Jan -3.0 17:53:05 10° SSW 17:56:13 37° SE 17:58:48 14° ENE visible
21 Jan -1.3 19:30:04 10° W 19:31:44 22° WNW 19:31:44 22° WNW visible
22 Jan -2.9 18:41:41 10° WSW 18:44:55 43° NNW 18:45:54 33° NNE visible
23 Jan -3.6 17:53:29 10° WSW 17:56:50 71° NW 17:59:59 11° NE visible
23 Jan -1.0 19:31:47 10° WNW 19:32:55 15° NW 19:32:55 15° NW visible
24 Jan -1.8 18:43:09 10° WNW 18:45:50 22° NNW 18:46:56 18° N visible
25 Jan -2.3 17:54:37 10° W 17:57:38 29° NNW 18:00:39 10° NE visible
25 Jan -0.7 19:33:39 10° NW 19:33:50 11° NNW 19:33:50 11° NNW visible
26 Jan -1.4 18:44:57 10° NW 18:46:54 14° NNW 18:47:46 13° N visible
27 Jan -1.6 17:56:14 10° WNW 17:58:34 17° NNW 18:00:55 10° NNE visible
28 Jan -1.3 18:46:38 10° NNW 18:48:01 12° N 18:48:28 12° N visible
29 Jan -1.3 17:58:01 10° NW 17:59:38 13° N 18:01:15 10° NNE visible
